[[{"header":{"parameterUnit":"m.s-1","parameterCategory":2,"la1":30.2991,"la2":30.254,"lo1":-89.0895,"lo2":-89.0444,"dy":0.0017,"dx":0.0017,"nx":28,"ny":28,"refTime":"2024-06-07T09:00:00:Z","depth":"0","parameterNumber":2,"parameterNumberName":"U-component_of_CURRENTS"},"data":[0,0,0,0,0,0,0,0,0,0,0,0,0,0,0,0,0,0,0,0,0,0,0,0,0,0,0,0,0,0,0,0,0,0,0,0,0,0,0,0,0,0,0,0,0,0,0,0,0,0,0,0,0,0,0,0,0,0,0.3165,0.3166,0,0.3161,0.316,0.316,0.3132,0.3132,0.3132,0.3131,0.3086,0.3086,0.3085,0,0,0,0,0,0,0,0,0,0,0,0,0,0.3159,0.3159,0.3165,0.3166,0.3166,0.3161,0.316,0.316,0.3133,0.3132,0.3131,0.3131,0.3087,0.3086,0.3085,0,0,0,0,0,0,0,0,0,0,0,0,0,0.3156,0.3159,0.3165,0.3153,0.3152,0.3161,0.316,0.316,0.3133,0.3132,0.3131,0.3131,0.3087,0.3086,0.3085,0.309,0,0,0.3081,0.308,0,0,0,0,0,0,0,0,0.3156,0.3156,0.3155,0.3154,0.3153,0.3149,0.3142,0.3136,0.3133,0.3137,0.3131,0.313,0.3106,0.3103,0.31,0.3088,0.3086,0.3081,0.308,0.308,0.3079,0,0,0,0,0,0,0,0.3156,0.3156,0.3161,0.3155,0.3154,0.3151,0.315,0.314,0.3122,0.3137,0.3136,0.3139,0.3104,0.3102,0.3099,0.3085,0.3081,0.308,0.3079,0.3079,0.3112,0.3114,0,0,0,0,0,0,0.3163,0.3156,0.3161,0.3161,0.3156,0.3152,0.315,0.3149,0.3123,0.312,0.314,0.3138,0.3104,0.31,0.3097,0.3134,0.308,0.3078,0.3078,0.3111,0.3113,0.3114,0,0,0,0,0,0,0.3162,0.3163,0.3161,0.3161,0.3161,0.3153,0.3151,0.3149,0.3149,0.3127,0.3122,0.3143,0.3103,0.3099,0.3101,0.313,0.3078,0.3077,0.3109,0.3111,0.3114,0.3186,0,0,0,0,0,0,0.3162,0.3163,0.3165,0.3161,0.3161,0.3166,0.3152,0.3149,0.3154,0.3151,0.3128,0.3123,0.3102,0.3103,0.31,0.3128,0.3076,0.3107,0.311,0.3113,0.3182,0.3191,0.3198,0,0,0,0,0,0.3162,0.3165,0.3164,0.3165,0.3163,0.3167,0.3166,0.3157,0.3155,0.3155,0.3149,0.3124,0.312,0.3103,0.3099,0.3127,0.3105,0.3109,0.3113,0.3178,0.3189,0.3198,0,0,0,0,0,0,0.3161,0.3163,0.3162,0.3165,0.3167,0.3163,0.3165,0.3164,0.316,0.3161,0.3138,0.3133,0.3148,0.313,0.3112,0.3148,0.3112,0.3115,0.3163,0.3173,0.3181,0.318,0.3075,0,0,0,0,0,0.3164,0.3166,0.3169,0.3171,0.3175,0.3173,0.3175,0.3174,0.3171,0.3169,0.3152,0.3149,0.3161,0.3159,0.3154,0.317,0.317,0.3188,0.3197,0.3204,0.3202,0.3245,0.3257,0.3126,0.3126,0.3126,0,0,0.3163,0.3166,0.3166,0.3172,0.3172,0.3187,0.3172,0.318,0.3196,0.3165,0.3174,0.3172,0.3171,0.3192,0.3198,0.3179,0.3244,0.3208,0.3214,0.3209,0.325,0.3263,0.3274,0.3129,0.3128,0.3128,0,0,0.3167,0.3167,0.3173,0.3182,0.3194,0.3198,0.3205,0.3205,0.3207,0.3226,0.3216,0.3232,0.3233,0.3241,0.3249,0.3301,0.3286,0.3304,0.3345,0.3387,0.3398,0.3408,0.3433,0.3445,0.3309,0.3309,0.3309,0,0.3168,0.3173,0.3176,0.3193,0.3201,0.3207,0.3222,0.3236,0.3237,0.3248,0.3238,0.327,0.3262,0.3307,0.3327,0.332,0.3336,0.3306,0.3398,0.3408,0.3416,0.344,0.3452,0.3313,0.3312,0.3312,0.3312,0,0.3181,0.3189,0.3195,0.3218,0.3233,0.3242,0.3267,0.3282,0.3293,0.3308,0.3345,0.3344,0.3363,0.3374,0.3368,0.3429,0.3418,0.3404,0.3372,0.3434,0.3455,0.3466,0.3318,0.3317,0.3316,0.3315,0,0,0.3166,0.3195,0.3198,0.3211,0.3243,0.3256,0.3297,0.3329,0.3366,0.3381,0.3426,0.3452,0.3452,0.3461,0.3458,0.3493,0.357,0.3478,0.3479,0.3502,0.3662,0.3606,0.3611,0.3579,0.3581,0.3583,0.3654,0,0.3169,0.3196,0.3213,0.3245,0.3259,0.3288,0.3326,0.3367,0.3402,0.345,0.3477,0.3516,0.3489,0.3508,0.3542,0.3566,0.3601,0.3552,0.3599,0.3599,0.3541,0.3623,0.349,0.3538,0.3665,0.3666,0.3668,0,0.3168,0.3188,0.3211,0.3255,0.3265,0.3292,0.3353,0.3395,0.3475,0.3505,0.3555,0.3577,0.3634,0.3604,0.3675,0.3648,0.3659,0.3672,0.3675,0.3601,0.3563,0.3496,0.3553,0.3472,0.3684,0.3682,0.3681,0,0.314,0.3183,0.3196,0.3211,0.3269,0.329,0.333,0.3405,0.3443,0.3546,0.3592,0.3654,0.3695,0.373,0.3752,0.3726,0.3831,0.3796,0.3753,0.3749,0.3632,0.3613,0.361,0.3848,0.3848,0.3848,0.3848,0,0.3122,0.3133,0.3185,0.3192,0.3224,0.3282,0.3327,0.3385,0.3473,0.3531,0.3614,0.3668,0.3732,0.3792,0.3797,0.3816,0.3868,0.3775,0.3773,0.3653,0.3636,0.3554,0.35,0.3851,0.385,0.3849,0.3849,0,0.3077,0.3105,0.3127,0.3187,0.3203,0.3233,0.3302,0.3344,0.3446,0.353,0.3567,0.3695,0.3781,0.3833,0.3902,0.3867,0.378,0.388,0.3728,0.3705,0.3556,0.351,0.3351,0.3257,0.384,0.3839,0.3839,0,0.3051,0.3058,0.3108,0.3117,0.3136,0.3183,0.3211,0.3309,0.336,0.3532,0.3571,0.3701,0.3774,0.3869,0.3851,0.3868,0.3751,0.3732,0.3648,0.3545,0.3493,0.3342,0.3264,0.3528,0.3525,0.3522,0.352,0,0.3007,0.3025,0.3043,0.306,0.308,0.3109,0.3165,0.3195,0.333,0.3403,0.3523,0.3606,0.3732,0.37,0.3737,0.3723,0.3542,0.3677,0.3617,0.3289,0.3076,0.2985,0.3481,0.3497,0.3499,0.3501,0.3502,0.3503,0.297,0.2967,0.2987,0.2988,0.3011,0.3023,0.3002,0.3079,0.3132,0.3215,0.3388,0.3455,0.3534,0.3572,0.354,0.3412,0.3379,0.3295,0.3263,0.3131,0.298,0.3418,0.3401,0.3402,0.3404,0.3405,0.3406,0,0.2905,0.2902,0.2911,0.2897,0.2871,0.2919,0.2949,0.2911,0.291,0.3049,0.3124,0.3205,0.319,0.3231,0.317,0.3033,0.2885,0.2935,0.2704,0.2661,0.3107,0.3035,0.288,0.288,0.2881,0.2881,0.2881,0.2881,0.2871,0.2836,0.2827,0.2748,0.2735,0.2658,0.2641,0.2613,0.2665,0.2679,0.2716,0.2808,0.2956,0.2944,0.2822,0.2747,0.2533,0.2379,0.2385,0.2727,0.2758,0.2788,0.2711,0.249,0.249,0.1837,0.1832,0.1828]},{"header":{"parameterUnit":"m.s-1","parameterCategory":2,"la1":30.2991,"la2":30.254,"lo1":-89.0895,"lo2":-89.0444,"dy":0.0017,"dx":0.0017,"nx":28,"ny":28,"refTime":"2024-06-07T09:00:00:Z","depth":"0","parameterNumber":3,"parameterNumberName":"V-component_of_CURRENTS"},"data":[0,0,0,0,0,0,0,0,0,0,0,0,0,0,0,0,0,0,0,0,0,0,0,0,0,0,0,0,0,0,0,0,0,0,0,0,0,0,0,0,0,0,0,0,0,0,0,0,0,0,0,0,0,0,0,0,0,0,0.0286,0.0286,0,0.0258,0.0258,0.0258,0.0235,0.0235,0.0235,0.0234,0.0198,0.0197,0.0196,0,0,0,0,0,0,0,0,0,0,0,0,0,0.0266,0.0267,0.0286,0.0286,0.0286,0.0258,0.0258,0.0257,0.0235,0.0235,0.0234,0.0234,0.0198,0.0197,0.0196,0,0,0,0,0,0,0,0,0,0,0,0,0,0.0259,0.0267,0.0286,0.0272,0.027,0.0258,0.0258,0.0257,0.0235,0.0235,0.0234,0.0234,0.0199,0.0197,0.0196,0.0193,0,0,0.0192,0.0192,0,0,0,0,0,0,0,0,0.026,0.026,0.0274,0.0273,0.0271,0.0251,0.0237,0.0236,0.0235,0.0247,0.0234,0.0234,0.0215,0.0213,0.0207,0.0191,0.019,0.0192,0.0191,0.0191,0.0191,0,0,0,0,0,0,0,0.026,0.0261,0.0274,0.0274,0.0272,0.0248,0.0247,0.0237,0.0232,0.0246,0.0245,0.0243,0.0214,0.0208,0.0206,0.0189,0.0192,0.0191,0.019,0.019,0.0174,0.0174,0,0,0,0,0,0,0.0269,0.0262,0.0275,0.0274,0.0266,0.0249,0.0248,0.0257,0.0233,0.0229,0.0243,0.0242,0.021,0.0207,0.0205,0.0216,0.0191,0.019,0.0189,0.0173,0.0174,0.0174,0,0,0,0,0,0,0.0269,0.0271,0.0276,0.0267,0.0266,0.025,0.026,0.0256,0.0254,0.0231,0.0227,0.0245,0.021,0.0206,0.02,0.0214,0.0189,0.0188,0.0173,0.0173,0.0174,0.0229,0,0,0,0,0,0,0.0268,0.0271,0.0278,0.0268,0.0267,0.028,0.026,0.0256,0.0254,0.0252,0.0231,0.0227,0.021,0.0202,0.0199,0.0212,0.0187,0.0173,0.0173,0.0174,0.0227,0.0232,0.0235,0,0,0,0,0,0.0268,0.0284,0.0278,0.028,0.0278,0.028,0.0278,0.0264,0.0254,0.026,0.0242,0.0228,0.0203,0.0202,0.0198,0.0211,0.0172,0.0173,0.0174,0.0225,0.0231,0.0235,0,0,0,0,0,0,0.0278,0.0283,0.0277,0.0293,0.029,0.0277,0.0279,0.027,0.026,0.0256,0.0233,0.0228,0.0227,0.021,0.0208,0.0206,0.0185,0.0185,0.0226,0.0231,0.0235,0.0253,0.0186,0,0,0,0,0,0.0284,0.0297,0.0294,0.0306,0.0306,0.0293,0.029,0.0283,0.0273,0.0269,0.0254,0.0236,0.0226,0.0222,0.0208,0.0209,0.0188,0.0214,0.0218,0.0222,0.0233,0.021,0.0213,0.0176,0.0176,0.0176,0,0,0.029,0.0294,0.0301,0.0308,0.0302,0.0317,0.0291,0.0294,0.0307,0.0266,0.0275,0.0251,0.0229,0.0229,0.0227,0.0218,0.0219,0.0222,0.0226,0.0236,0.0211,0.0214,0.0218,0.0177,0.0177,0.0177,0,0,0.0315,0.0314,0.0335,0.0338,0.0337,0.0332,0.0337,0.0329,0.0327,0.033,0.0303,0.0286,0.0275,0.0259,0.0251,0.0269,0.0241,0.0265,0.0305,0.0282,0.0285,0.0287,0.0261,0.0261,0.0269,0.0269,0.0269,0,0.0321,0.0351,0.034,0.0361,0.0371,0.0345,0.0372,0.0367,0.0358,0.0362,0.0342,0.0319,0.0291,0.0295,0.0297,0.028,0.0263,0.0289,0.0288,0.029,0.0292,0.0264,0.0263,0.0272,0.0272,0.0271,0.0271,0,0.0365,0.0386,0.0398,0.0421,0.0428,0.0444,0.0441,0.0444,0.0434,0.0428,0.0426,0.0384,0.0371,0.0356,0.0332,0.0333,0.0316,0.0295,0.0278,0.0299,0.0268,0.0266,0.0276,0.0275,0.0274,0.0273,0,0,0.0391,0.0424,0.043,0.0455,0.0463,0.048,0.0498,0.0515,0.0539,0.0509,0.0535,0.0492,0.0461,0.0449,0.041,0.0386,0.0368,0.0351,0.0349,0.0331,0.0319,0.0315,0.0312,0.0351,0.0351,0.0351,0.0292,0,0.0431,0.049,0.0493,0.0548,0.0579,0.0568,0.0596,0.0603,0.0599,0.0614,0.0564,0.0569,0.05,0.0497,0.0458,0.0399,0.0367,0.0386,0.0297,0.0295,0.0293,0.0311,0.035,0.0303,0.029,0.0289,0.0289,0,0.048,0.0515,0.0579,0.0628,0.0641,0.067,0.0713,0.0734,0.0736,0.0733,0.0711,0.0674,0.0635,0.0574,0.0474,0.0492,0.041,0.0354,0.035,0.0329,0.0288,0.028,0.0299,0.0205,0.0286,0.0286,0.0286,0,0.0522,0.0578,0.0636,0.0652,0.0699,0.073,0.0756,0.0774,0.0811,0.0812,0.0837,0.0769,0.0755,0.0645,0.0516,0.0498,0.0409,0.0365,0.0281,0.0279,0.0287,0.0287,0.0212,0.0291,0.0291,0.0292,0.0292,0,0.0571,0.0618,0.0665,0.07,0.0778,0.0787,0.0866,0.0879,0.0913,0.098,0.0903,0.0937,0.0775,0.0702,0.0559,0.0424,0.0435,0.0297,0.027,0.0307,0.0308,0.0205,0.0124,0.0289,0.029,0.029,0.0291,0,0.0612,0.0638,0.0712,0.0776,0.0804,0.0862,0.0947,0.1003,0.1023,0.1107,0.1117,0.1069,0.0982,0.0811,0.0644,0.05,0.0299,0.0303,0.0357,0.0337,0.0166,0.0086,-0.0037,-0.0083,0.0201,0.0201,0.02,0,0.0638,0.068,0.0773,0.0826,0.0861,0.0946,0.1011,0.1056,0.1127,0.1202,0.1254,0.12,0.1193,0.0937,0.0682,0.0443,0.0307,0.0299,0.0263,0.0173,0.0063,0.0009,-0.0024,0.0287,0.0287,0.0288,0.0288,0,0.0688,0.0721,0.0783,0.0893,0.0974,0.1072,0.1172,0.1248,0.1322,0.1409,0.1505,0.151,0.1282,0.1078,0.074,0.0552,0.0239,0.0298,0.0194,0.012,0.0068,0.0007,0.0301,0.0291,0.0291,0.0291,0.029,0.029,0.0725,0.0777,0.0861,0.0967,0.1063,0.1193,0.1289,0.1411,0.1557,0.1705,0.1698,0.176,0.1443,0.1001,0.0731,0.0294,0.0259,0.0164,0.0072,0.0026,-0.0009,0.0293,0.026,0.0259,0.0259,0.0258,0.0258,0,0.077,0.0832,0.0929,0.106,0.1172,0.1219,0.1393,0.1507,0.1701,0.1852,0.1953,0.188,0.1484,0.105,0.045,0.0141,0.0022,-0.0033,-0.0097,-0.0124,0.0147,0.0163,0.0122,0.0122,0.0122,0.0123,0.0123,0.0123,0.0795,0.0889,0.094,0.1127,0.1224,0.1385,0.1493,0.1678,0.1831,0.205,0.2137,0.2155,0.1867,0.0796,0.0109,-0.0072,-0.0277,-0.033,-0.0442,-0.0252,-0.024,-0.0228,-0.0229,-0.0352,-0.0352,-0.0636,-0.0639,-0.0641]}],[{"header":{"parameterUnit":"m.s-1","parameterCategory":2,"la1":30.2991,"la2":30.254,"lo1":-89.0895,"lo2":-89.0444,"dy":0.0017,"dx":0.0017,"nx":28,"ny":28,"refTime":"2024-06-07T09:00:00:Z","depth":"2","parameterNumber":2,"parameterNumberName":"U-component_of_CURRENTS"},"data":[0,0,0,0,0,0,0,0,0,0,0,0,0,0,0,0,0,0,0,0,0,0,0,0,0,0,0,0,0,0,0,0,0,0,0,0,0,0,0,0,0,0,0,0,0,0,0,0,0,0,0,0,0,0,0,0,0,0,0.2622,0.2622,0,0.2628,0.2628,0.2628,0.2619,0.2619,0.2619,0.2619,0.2607,0.2607,0.2607,0,0,0,0,0,0,0,0,0,0,0,0,0,0.261,0.261,0.2622,0.2622,0.2622,0.2628,0.2628,0.2628,0.2619,0.2619,0.2619,0.2619,0.2607,0.2607,0.2607,0,0,0,0,0,0,0,0,0,0,0,0,0,0.2614,0.261,0.2622,0.262,0.262,0.2628,0.2628,0.2628,0.2619,0.2619,0.2619,0.2619,0.2607,0.2607,0.2607,0.2609,0,0,0.2606,0.2606,0,0,0,0,0,0,0,0,0.2614,0.2614,0.262,0.262,0.262,0.2625,0.262,0.2622,0.2619,0.2617,0.2619,0.2619,0.2613,0.2612,0.2611,0.2608,0.2608,0.2606,0.2606,0.2605,0.2605,0,0,0,0,0,0,0,0.2613,0.2614,0.2622,0.262,0.262,0.2622,0.2622,0.262,0.2614,0.2618,0.2617,0.2622,0.2612,0.2611,0.2611,0.2608,0.2606,0.2605,0.2605,0.2605,0.2655,0.2656,0,0,0,0,0,0,0.2617,0.2614,0.2622,0.2623,0.2619,0.2623,0.2623,0.2622,0.2615,0.2614,0.2622,0.2621,0.2612,0.2611,0.261,0.2655,0.2605,0.2605,0.2605,0.2654,0.2655,0.2657,0,0,0,0,0,0,0.2616,0.2617,0.2622,0.262,0.2621,0.2623,0.2622,0.2622,0.2631,0.2618,0.2617,0.2632,0.2612,0.2611,0.2623,0.2653,0.2605,0.2605,0.2652,0.2654,0.2656,0.2718,0,0,0,0,0,0,0.2616,0.2617,0.2622,0.262,0.2621,0.263,0.2623,0.2622,0.2634,0.2634,0.2627,0.2625,0.2611,0.2624,0.2623,0.2652,0.2605,0.265,0.2653,0.2655,0.2714,0.2722,0.2729,0,0,0,0,0,0.2615,0.2618,0.2622,0.2623,0.2626,0.2631,0.2631,0.2631,0.2635,0.2638,0.2642,0.2626,0.2641,0.2624,0.2623,0.2653,0.2649,0.2652,0.2655,0.2711,0.2721,0.2729,0,0,0,0,0,0,0.2614,0.2618,0.2622,0.2626,0.2632,0.263,0.2636,0.264,0.2646,0.2651,0.2639,0.2637,0.2662,0.265,0.2632,0.2677,0.2645,0.2648,0.2688,0.2697,0.2704,0.2702,0.2604,0,0,0,0,0,0.2618,0.2622,0.2627,0.2631,0.2636,0.2641,0.2646,0.2649,0.2653,0.2656,0.2652,0.2657,0.2674,0.2678,0.2681,0.2701,0.2701,0.2722,0.273,0.2736,0.2735,0.2774,0.2785,0.2668,0.2668,0.2668,0,0,0.2618,0.2623,0.2624,0.2632,0.2637,0.2652,0.2643,0.2655,0.2674,0.2654,0.2675,0.268,0.2685,0.2711,0.2721,0.2705,0.277,0.274,0.2746,0.2741,0.2779,0.279,0.28,0.267,0.267,0.267,0,0,0.2621,0.2626,0.2632,0.2643,0.2658,0.2665,0.2673,0.268,0.2689,0.2716,0.2713,0.2735,0.275,0.2759,0.2769,0.2819,0.2809,0.2826,0.2862,0.29,0.291,0.2919,0.2936,0.2946,0.283,0.283,0.283,0,0.2625,0.263,0.2635,0.2651,0.2661,0.2675,0.2689,0.2707,0.2719,0.2734,0.2732,0.2776,0.2776,0.2819,0.2839,0.2836,0.285,0.2827,0.291,0.2919,0.2926,0.2942,0.2952,0.2833,0.2833,0.2833,0.2832,0,0.2632,0.2644,0.2649,0.2674,0.2689,0.2701,0.2728,0.275,0.2771,0.279,0.2835,0.2842,0.2868,0.288,0.2878,0.2935,0.2925,0.2915,0.2886,0.2942,0.2955,0.2964,0.2838,0.2837,0.2836,0.2835,0,0,0.2617,0.2647,0.2651,0.2664,0.27,0.2712,0.2757,0.2792,0.2831,0.2857,0.2905,0.2938,0.2946,0.2957,0.2958,0.299,0.3058,0.2981,0.2982,0.2995,0.3138,0.3076,0.308,0.3071,0.3073,0.3075,0.3125,0,0.2619,0.2643,0.2662,0.2693,0.2705,0.274,0.278,0.2824,0.2866,0.2918,0.295,0.2995,0.2976,0.3001,0.3032,0.3058,0.3085,0.3044,0.3083,0.3084,0.3021,0.3089,0.2831,0.2851,0.3134,0.3136,0.3137,0,0.2615,0.2633,0.2656,0.2699,0.271,0.2741,0.2807,0.2847,0.293,0.2968,0.3022,0.3049,0.3107,0.3084,0.315,0.3129,0.3138,0.3148,0.315,0.3074,0.3039,0.2841,0.2856,0.3151,0.315,0.3149,0.3148,0,0.2584,0.2626,0.2641,0.2656,0.2714,0.2743,0.2784,0.2862,0.2901,0.3006,0.3055,0.3119,0.3164,0.3195,0.322,0.3198,0.3289,0.3258,0.3203,0.3198,0.2974,0.2946,0.33,0.33,0.33,0.33,0.3299,0,0.2565,0.2577,0.2633,0.2641,0.2676,0.2733,0.2785,0.2844,0.2934,0.299,0.3077,0.3129,0.3199,0.3254,0.3258,0.3266,0.3321,0.322,0.3216,0.2988,0.2963,0.3214,0.3204,0.3301,0.3301,0.3301,0.33,0,0.2519,0.255,0.2572,0.2636,0.2656,0.2687,0.2766,0.2807,0.2913,0.2994,0.3033,0.3157,0.3236,0.3286,0.3348,0.331,0.3326,0.3308,0.3031,0.2993,0.3194,0.3186,0.3249,0.3248,0.3246,0.3245,0.3244,0,0.2493,0.25,0.2555,0.2566,0.2593,0.2645,0.2677,0.2779,0.2829,0.2994,0.3029,0.3153,0.3211,0.3289,0.3254,0.3255,0.3316,0.3005,0.291,0.3204,0.3193,0.3188,0.3182,0.2635,0.2629,0.2625,0.2621,0,0.2447,0.2469,0.2487,0.251,0.254,0.2566,0.2629,0.2659,0.2791,0.286,0.2963,0.303,0.3126,0.3015,0.3037,0.2997,0.2986,0.2908,0.3299,0.2696,0.2631,0.2619,0.2632,0.2578,0.2582,0.2586,0.2588,0.259,0.2411,0.2407,0.2431,0.2439,0.2468,0.2476,0.2459,0.2533,0.2578,0.2654,0.28,0.2809,0.2841,0.2741,0.2653,0.2579,0.2781,0.2634,0.2646,0.2664,0.2591,0.2529,0.2442,0.2445,0.2448,0.2451,0.2453,0,0.2345,0.2345,0.2355,0.2348,0.2326,0.238,0.2406,0.2364,0.2357,0.2463,0.2514,0.2328,0.2265,0.2298,0.2116,0.211,0.2062,0.202,0.1925,0.1971,0.2011,0.1901,0.1571,0.1568,0.1565,0.1562,0,0,0.2312,0.2279,0.2269,0.2198,0.2195,0.2126,0.211,0.2073,0.2097,0.206,0.2038,0.2203,0.226,0.1897,0.1841,0.1674,0.181,0.1609,0.2323,0.226,0.2296,0.2378,0.2264,0,0,0,0,0]},{"header":{"parameterUnit":"m.s-1","parameterCategory":2,"la1":30.2991,"la2":30.254,"lo1":-89.0895,"lo2":-89.0444,"dy":0.0017,"dx":0.0017,"nx":28,"ny":28,"refTime":"2024-06-07T09:00:00:Z","depth":"2","parameterNumber":3,"parameterNumberName":"V-component_of_CURRENTS"},"data":[0,0,0,0,0,0,0,0,0,0,0,0,0,0,0,0,0,0,0,0,0,0,0,0,0,0,0,0,0,0,0,0,0,0,0,0,0,0,0,0,0,0,0,0,0,0,0,0,0,0,0,0,0,0,0,0,0,0,0.0276,0.0275,0,0.0249,0.0249,0.0249,0.0231,0.0231,0.023,0.023,0.02,0.02,0.0199,0,0,0,0,0,0,0,0,0,0,0,0,0,0.026,0.0261,0.0276,0.0275,0.0275,0.0249,0.0249,0.0249,0.0231,0.0231,0.023,0.023,0.02,0.02,0.0199,0,0,0,0,0,0,0,0,0,0,0,0,0,0.0253,0.0261,0.0276,0.0263,0.0262,0.0249,0.0249,0.0248,0.0231,0.0231,0.023,0.023,0.0201,0.02,0.0199,0.0195,0,0,0.0195,0.0195,0,0,0,0,0,0,0,0,0.0254,0.0254,0.0265,0.0264,0.0263,0.0244,0.0232,0.023,0.0231,0.0242,0.023,0.023,0.0215,0.0213,0.0207,0.0193,0.0192,0.0195,0.0195,0.0194,0.0194,0,0,0,0,0,0,0,0.0254,0.0255,0.0265,0.0265,0.0263,0.0242,0.0241,0.0232,0.0229,0.0241,0.024,0.0238,0.0214,0.0208,0.0206,0.0192,0.0195,0.0194,0.0194,0.0193,0.0178,0.0178,0,0,0,0,0,0,0.0261,0.0255,0.0266,0.0264,0.0258,0.0243,0.0242,0.0249,0.0229,0.0226,0.0238,0.0237,0.021,0.0208,0.0205,0.0216,0.0194,0.0193,0.0193,0.0178,0.0178,0.0178,0,0,0,0,0,0,0.0261,0.0263,0.0267,0.0259,0.0258,0.0243,0.0252,0.0249,0.0247,0.0227,0.0224,0.024,0.021,0.0207,0.0202,0.0214,0.0193,0.0192,0.0178,0.0178,0.0178,0.0227,0,0,0,0,0,0,0.0261,0.0263,0.027,0.026,0.0258,0.0269,0.0252,0.0249,0.0246,0.0245,0.0227,0.0224,0.021,0.0204,0.0201,0.0212,0.0191,0.0177,0.0178,0.0178,0.0225,0.0229,0.0232,0,0,0,0,0,0.0261,0.0274,0.027,0.0271,0.0269,0.0269,0.0267,0.0255,0.0247,0.0252,0.0237,0.0225,0.0205,0.0203,0.02,0.0211,0.0177,0.0178,0.0178,0.0223,0.0228,0.0232,0,0,0,0,0,0,0.027,0.0273,0.0269,0.0282,0.0279,0.0267,0.0267,0.026,0.0252,0.0249,0.0229,0.0225,0.0225,0.021,0.0209,0.0207,0.0188,0.0188,0.0224,0.0228,0.0232,0.0248,0.019,0,0,0,0,0,0.0275,0.0287,0.0283,0.0293,0.0293,0.028,0.0278,0.0272,0.0263,0.0259,0.0247,0.0232,0.0224,0.022,0.0208,0.0209,0.0187,0.0212,0.0216,0.0219,0.023,0.0204,0.0206,0.018,0.018,0.018,0,0,0.028,0.0284,0.0289,0.0296,0.029,0.0302,0.0279,0.028,0.0293,0.0258,0.0266,0.0245,0.0226,0.0226,0.0225,0.0217,0.0214,0.022,0.0223,0.0232,0.0205,0.0207,0.0209,0.0181,0.018,0.018,0,0,0.0301,0.03,0.0318,0.0321,0.032,0.0315,0.0319,0.0311,0.0309,0.0313,0.029,0.0275,0.0266,0.0252,0.0245,0.026,0.0233,0.0257,0.0291,0.0266,0.0268,0.027,0.024,0.0238,0.026,0.026,0.026,0,0.0306,0.0333,0.0322,0.0341,0.0349,0.0327,0.035,0.0346,0.0337,0.0341,0.0324,0.0303,0.0279,0.0283,0.0285,0.027,0.0251,0.0278,0.0271,0.0272,0.0273,0.0242,0.024,0.0262,0.0262,0.0262,0.0262,0,0.0343,0.0363,0.0373,0.0393,0.04,0.0414,0.041,0.0414,0.0405,0.0399,0.0397,0.036,0.0348,0.0335,0.0315,0.0313,0.0295,0.0278,0.0263,0.0279,0.0245,0.0242,0.0266,0.0265,0.0264,0.0264,0,0,0.0364,0.0394,0.04,0.0424,0.0431,0.0446,0.0462,0.0476,0.0497,0.0471,0.0491,0.0455,0.0427,0.0416,0.0382,0.0357,0.0334,0.0325,0.0323,0.0301,0.0278,0.0266,0.0261,0.0318,0.0318,0.0318,0.025,0,0.0399,0.0451,0.0455,0.0506,0.0534,0.0524,0.0549,0.0554,0.055,0.0561,0.0515,0.0519,0.0461,0.0458,0.0421,0.0363,0.0329,0.0354,0.0261,0.0259,0.025,0.0258,0.0271,0.0212,0.0246,0.0246,0.0245,0,0.0441,0.0473,0.0531,0.0577,0.0589,0.0616,0.0654,0.0672,0.067,0.0665,0.0645,0.061,0.0571,0.052,0.0421,0.0442,0.0364,0.031,0.0306,0.0279,0.0242,0.0202,0.0205,0.024,0.024,0.0241,0.0241,0,0.0477,0.0529,0.0582,0.0597,0.0641,0.067,0.0693,0.0707,0.0739,0.0735,0.0752,0.0689,0.0672,0.057,0.0447,0.0437,0.0337,0.0305,0.0219,0.0216,0.0202,0.0199,0.0232,0.0232,0.0232,0.0232,0.0232,0,0.0521,0.0564,0.0608,0.064,0.0712,0.0721,0.0792,0.0802,0.0829,0.0882,0.0811,0.0833,0.0686,0.061,0.048,0.0346,0.0356,0.023,0.0202,0.0218,0.0217,0.0223,0.0222,0.023,0.023,0.0231,0.0231,0,0.0557,0.0582,0.0649,0.0708,0.0735,0.0787,0.0866,0.0914,0.0927,0.0994,0.1,0.0944,0.0849,0.0691,0.053,0.0402,0.0266,0.0211,0.0238,0.0215,0.0149,0.0152,0.0108,0.0107,0.0107,0.0106,0.0105,0,0.058,0.0618,0.0704,0.0752,0.0786,0.0864,0.0923,0.0963,0.1022,0.107,0.1111,0.1042,0.1012,0.0761,0.053,0.0306,0.0269,0.0159,0.0136,0.0161,0.0138,0.0143,0.0147,0.0128,0.0127,0.0127,0.0127,0,0.0624,0.0654,0.0711,0.0811,0.0887,0.0977,0.1066,0.113,0.119,0.1247,0.1304,0.1284,0.1056,0.0835,0.0522,0.0362,0.0195,0.0147,0.0169,0.0164,0.0176,0.0155,0.0159,0.0125,0.0125,0.0125,0.0125,0.0125,0.0657,0.0703,0.0779,0.0876,0.0964,0.1081,0.1165,0.1264,0.1375,0.1465,0.1441,0.1409,0.1154,0.0757,0.0483,0.0186,0.0202,0.0084,0.0086,0.0088,0.011,0.0121,0.0062,0.0062,0.0062,0.0062,0.0062,0,0.0696,0.0751,0.0839,0.0956,0.1055,0.1103,0.1254,0.134,0.148,0.155,0.1592,0.1348,0.1094,0.0791,0.0363,0.0112,0.0085,0.0016,0.0041,0.0045,0.0049,0.0069,0.001,0.0009,0.0008,0.0007,0,0,0.0718,0.08,0.0845,0.1008,0.1096,0.1239,0.1331,0.1462,0.1546,0.1618,0.1597,0.1542,0.1185,0.0864,0.0518,0.0267,0.0211,0.0208,0.0277,0.0353,0.0359,0.0114,0.0153,0,0,0,0,0]}],[{"header":{"parameterUnit":"m.s-1","parameterCategory":2,"la1":30.2991,"la2":30.254,"lo1":-89.0895,"lo2":-89.0444,"dy":0.0017,"dx":0.0017,"nx":28,"ny":28,"refTime":"2024-06-07T09:00:00:Z","depth":"4","parameterNumber":2,"parameterNumberName":"U-component_of_CURRENTS"},"data":[0,0,0,0,0,0,0,0,0,0,0,0,0,0,0,0,0,0,0,0,0,0,0,0,0,0,0,0,0,0,0,0,0,0,0,0,0,0,0,0,0,0,0,0,0,0,0,0,0,0,0,0,0,0,0,0,0,0,0.1709,0.1709,0,0.1759,0.1759,0.176,0.1809,0.1809,0.181,0.1811,0.1877,0.1878,0.1879,0,0,0,0,0,0,0,0,0,0,0,0,0,0.1654,0.1655,0.1709,0.1709,0.171,0.1759,0.176,0.176,0.1808,0.1809,0.181,0.1811,0.1876,0.1878,0.1879,0,0,0,0,0,0,0,0,0,0,0,0,0,0.1687,0.1655,0.1708,0.1741,0.1745,0.1759,0.176,0.176,0.1808,0.1809,0.1811,0.1812,0.1876,0.1877,0.1879,0.1865,0,0,0.1884,0.1884,0,0,0,0,0,0,0,0,0.1685,0.1689,0.1736,0.1739,0.1743,0.178,0.1765,0.1797,0.1808,0.1783,0.1811,0.1812,0.1846,0.185,0.1854,0.1868,0.1871,0.1884,0.1885,0.1885,0.1886,0,0,0,0,0,0,0,0.1683,0.1687,0.1727,0.1737,0.1741,0.1754,0.176,0.1771,0.1806,0.1785,0.1789,0.1797,0.1848,0.1853,0.1856,0.1872,0.1884,0.1885,0.1886,0.1887,0.1987,0.1989,0,0,0,0,0,0,0.1679,0.1685,0.1725,0.1729,0.1718,0.1754,0.176,0.1766,0.1806,0.1813,0.1796,0.1799,0.185,0.1855,0.1859,0.1945,0.1885,0.1887,0.1888,0.1986,0.1988,0.199,0,0,0,0,0,0,0.1677,0.1682,0.1723,0.1709,0.1716,0.1754,0.176,0.1766,0.1808,0.1814,0.1822,0.1836,0.1851,0.1857,0.1903,0.1944,0.1888,0.1889,0.1984,0.1986,0.1989,0.2053,0,0,0,0,0,0,0.1675,0.1681,0.1702,0.1709,0.1717,0.1751,0.1759,0.1766,0.181,0.1816,0.185,0.1855,0.1852,0.1901,0.1905,0.1945,0.189,0.1981,0.1985,0.1988,0.2049,0.2058,0.2065,0,0,0,0,0,0.1673,0.1688,0.1703,0.1709,0.1738,0.1752,0.1757,0.1787,0.1811,0.183,0.1861,0.1856,0.1925,0.1903,0.1907,0.195,0.198,0.1984,0.1988,0.2045,0.2056,0.2065,0,0,0,0,0,0,0.1678,0.1695,0.1711,0.1733,0.1753,0.1761,0.1788,0.1807,0.1846,0.1867,0.1874,0.1881,0.1938,0.1934,0.191,0.1989,0.1953,0.1958,0.1996,0.2006,0.2014,0.2008,0.1891,0,0,0,0,0,0.1687,0.1707,0.1721,0.1745,0.1757,0.1781,0.18,0.182,0.1845,0.1866,0.1889,0.192,0.195,0.1971,0.199,0.2029,0.2026,0.2061,0.2069,0.2076,0.2075,0.2111,0.2122,0.2003,0.2003,0.2002,0,0,0.1697,0.1711,0.1724,0.1748,0.1769,0.1792,0.1796,0.1833,0.1865,0.1865,0.1928,0.195,0.1967,0.2015,0.204,0.2022,0.211,0.2081,0.2087,0.2082,0.2116,0.2128,0.2138,0.2005,0.2005,0.2004,0,0,0.171,0.1738,0.1757,0.1776,0.1813,0.1825,0.1844,0.1874,0.1906,0.196,0.1973,0.2019,0.2065,0.208,0.2094,0.2158,0.2151,0.2176,0.2214,0.225,0.226,0.2268,0.2281,0.229,0.218,0.218,0.2181,0,0.1727,0.1745,0.1766,0.1788,0.1811,0.1845,0.187,0.1903,0.1949,0.1978,0.1994,0.2077,0.2094,0.2145,0.2173,0.2177,0.219,0.2175,0.226,0.2268,0.2276,0.2287,0.2296,0.2184,0.2184,0.2183,0.2183,0,0.174,0.1773,0.1787,0.1827,0.1855,0.1883,0.1922,0.1968,0.2018,0.2048,0.2124,0.215,0.2198,0.2218,0.222,0.2286,0.2275,0.2265,0.2232,0.2292,0.23,0.2308,0.2189,0.2188,0.2187,0.2186,0,0,0.1728,0.1785,0.1796,0.1822,0.1879,0.1898,0.1963,0.2015,0.2068,0.2129,0.2193,0.2251,0.2276,0.2293,0.2305,0.2337,0.2407,0.2334,0.2334,0.2341,0.2482,0.232,0.2313,0.2422,0.2424,0.2425,0.2466,0,0.1736,0.1778,0.1808,0.1863,0.1885,0.1941,0.1994,0.2057,0.2119,0.2191,0.224,0.2308,0.2303,0.2344,0.2377,0.2406,0.2433,0.2396,0.2427,0.2427,0.2272,0.2319,0.2431,0.2472,0.2474,0.2475,0.2476,0,0.173,0.1761,0.181,0.1879,0.1897,0.1947,0.2039,0.2091,0.2192,0.2248,0.2321,0.2362,0.2433,0.242,0.2491,0.2474,0.2485,0.2494,0.2496,0.2324,0.228,0.24,0.2491,0.249,0.2489,0.2488,0.2487,0,0.1689,0.176,0.18,0.1824,0.191,0.1962,0.202,0.2118,0.2168,0.2294,0.2352,0.2431,0.2491,0.2524,0.2553,0.254,0.2616,0.2594,0.245,0.2438,0.2544,0.2534,0.2634,0.2634,0.2634,0.2634,0.2634,0,0.1658,0.1696,0.1796,0.1817,0.1882,0.1956,0.2037,0.2111,0.2219,0.2278,0.2383,0.2431,0.2527,0.2577,0.2583,0.2538,0.2642,0.2455,0.2439,0.257,0.2563,0.2549,0.2539,0.2635,0.2635,0.2635,0.2634,0,0.1596,0.166,0.1714,0.1822,0.1862,0.1914,0.2034,0.2084,0.2208,0.2292,0.2339,0.2461,0.2522,0.258,0.2639,0.2558,0.2544,0.2501,0.2639,0.263,0.2333,0.2326,0.2332,0.2326,0.2322,0.2318,0.2315,0,0.1561,0.1586,0.1706,0.1742,0.1798,0.1887,0.1939,0.2066,0.2115,0.2279,0.2303,0.2419,0.2481,0.2425,0.2503,0.2494,0.2462,0.2431,0.2369,0.2319,0.2304,0.2304,0.2303,0.2308,0.2306,0.2305,0.2304,0,0.1495,0.1558,0.1604,0.1678,0.1745,0.1796,0.1887,0.1905,0.2046,0.2178,0.2207,0.223,0.2291,0.2317,0.2332,0.2321,0.2438,0.2383,0.2391,0.2333,0.229,0.2279,0.2284,0.2288,0.2291,0.2292,0.2293,0,0.1455,0.1469,0.1543,0.159,0.1666,0.1682,0.174,0.1789,0.1846,0.2023,0.2026,0.2149,0.2267,0.2228,0.2242,0.222,0.2176,0.2087,0.211,0.2129,0.2042,0.1956,0.1837,0,0,0,0,0,0.14,0.14,0.1443,0.1479,0.1548,0.1589,0.1689,0.175,0.1886,0.1852,0.193,0.1973,0.1988,0.2049,0.1983,0.2153,0.2191,0.2066,0.2102,0.2201,0.2219,0.2135,0,0,0,0,0,0,0.1361,0.1399,0.1403,0.1377,0.1381,0.1435,0.1493,0.1587,0.1571,0.1719,0.1737,0.1846,0.1894,0.2005,0.1944,0.1961,0.1939,0.2143,0.2137,0.219,0.2207,0.2222,0.2141,0,0,0,0,0]},{"header":{"parameterUnit":"m.s-1","parameterCategory":2,"la1":30.2991,"la2":30.254,"lo1":-89.0895,"lo2":-89.0444,"dy":0.0017,"dx":0.0017,"nx":28,"ny":28,"refTime":"2024-06-07T09:00:00:Z","depth":"4","parameterNumber":3,"parameterNumberName":"V-component_of_CURRENTS"},"data":[0,0,0,0,0,0,0,0,0,0,0,0,0,0,0,0,0,0,0,0,0,0,0,0,0,0,0,0,0,0,0,0,0,0,0,0,0,0,0,0,0,0,0,0,0,0,0,0,0,0,0,0,0,0,0,0,0,0,0.0222,0.0222,0,0.0208,0.0208,0.0208,0.0202,0.0202,0.0202,0.0202,0.0188,0.0188,0.0187,0,0,0,0,0,0,0,0,0,0,0,0,0,0.0208,0.0209,0.0222,0.0222,0.0222,0.0208,0.0208,0.0208,0.0202,0.0202,0.0202,0.0202,0.0188,0.0188,0.0187,0,0,0,0,0,0,0,0,0,0,0,0,0,0.0206,0.0209,0.0222,0.0217,0.0217,0.0208,0.0208,0.0208,0.0202,0.0202,0.0202,0.0202,0.0188,0.0188,0.0187,0.0182,0,0,0.0185,0.0185,0,0,0,0,0,0,0,0,0.0206,0.0207,0.0218,0.0218,0.0217,0.0207,0.0198,0.0199,0.0202,0.0208,0.0202,0.0202,0.0194,0.0193,0.019,0.0181,0.0181,0.0185,0.0185,0.0185,0.0184,0,0,0,0,0,0,0,0.0207,0.0207,0.0217,0.0218,0.0217,0.0204,0.0204,0.0198,0.0201,0.0207,0.0207,0.0205,0.0194,0.0191,0.019,0.0181,0.0185,0.0185,0.0184,0.0184,0.0178,0.0178,0,0,0,0,0,0,0.0211,0.0208,0.0217,0.0216,0.0212,0.0204,0.0204,0.021,0.0201,0.0199,0.0205,0.0205,0.0192,0.0191,0.0189,0.0203,0.0185,0.0184,0.0184,0.0177,0.0178,0.0178,0,0,0,0,0,0,0.0211,0.0212,0.0218,0.0211,0.0211,0.0205,0.0211,0.021,0.0213,0.0199,0.0198,0.021,0.0192,0.019,0.0191,0.0202,0.0184,0.0183,0.0177,0.0178,0.0178,0.0218,0,0,0,0,0,0,0.021,0.0212,0.0219,0.0212,0.0211,0.0221,0.0211,0.021,0.0211,0.0211,0.0203,0.0201,0.0192,0.0192,0.019,0.0201,0.0183,0.0177,0.0177,0.0178,0.0216,0.0219,0.0222,0,0,0,0,0,0.021,0.022,0.0219,0.022,0.0221,0.0222,0.0221,0.0216,0.0212,0.0218,0.021,0.0202,0.0193,0.0192,0.019,0.02,0.0177,0.0177,0.0178,0.0215,0.0219,0.0222,0,0,0,0,0,0,0.0217,0.022,0.0219,0.023,0.023,0.0221,0.0224,0.022,0.0219,0.0218,0.0206,0.0204,0.0208,0.0197,0.0196,0.0198,0.0183,0.0183,0.0212,0.0216,0.0218,0.0231,0.0182,0,0,0,0,0,0.0221,0.0232,0.023,0.0239,0.0239,0.0233,0.0232,0.023,0.0226,0.0226,0.0219,0.0211,0.0207,0.0206,0.0199,0.0202,0.0183,0.0206,0.0209,0.0212,0.022,0.0196,0.0197,0.0179,0.0179,0.0179,0,0,0.0226,0.0229,0.0235,0.0241,0.0239,0.0249,0.0233,0.0237,0.0249,0.0224,0.0237,0.0222,0.021,0.0213,0.0214,0.0207,0.0205,0.0212,0.0215,0.0221,0.0196,0.0198,0.02,0.018,0.018,0.018,0,0,0.0242,0.0244,0.0258,0.0262,0.0264,0.0261,0.0266,0.0262,0.0264,0.0272,0.0256,0.0247,0.0245,0.0235,0.023,0.0244,0.0221,0.0243,0.027,0.0247,0.0248,0.0249,0.0222,0.0221,0.0245,0.0245,0.0245,0,0.0247,0.0268,0.0261,0.0277,0.0286,0.0271,0.0291,0.029,0.0288,0.0293,0.0283,0.0273,0.0256,0.026,0.0263,0.0252,0.0235,0.0259,0.0251,0.0252,0.0252,0.0224,0.0222,0.0247,0.0247,0.0247,0.0247,0,0.0274,0.0292,0.03,0.0319,0.0326,0.0339,0.0339,0.0345,0.0343,0.0341,0.0344,0.0318,0.0313,0.0303,0.0289,0.0286,0.0271,0.0258,0.0244,0.0257,0.0226,0.0223,0.025,0.0249,0.0249,0.0248,0,0,0.0287,0.0315,0.032,0.0342,0.0352,0.0365,0.0381,0.0396,0.0414,0.0399,0.0417,0.0394,0.0375,0.0367,0.0342,0.032,0.0298,0.0295,0.0293,0.0272,0.0246,0.0226,0.022,0.0285,0.0285,0.0285,0.0222,0,0.0313,0.0356,0.0362,0.0406,0.0428,0.0427,0.0449,0.0458,0.0459,0.0469,0.0437,0.0443,0.0402,0.0402,0.0371,0.0321,0.0293,0.0316,0.0234,0.0232,0.0215,0.0217,0.0284,0.0219,0.0219,0.0218,0.0218,0,0.0342,0.0369,0.0418,0.0462,0.0472,0.0498,0.0534,0.0552,0.0554,0.0553,0.0541,0.0516,0.0485,0.0447,0.0364,0.0383,0.032,0.0273,0.0269,0.0237,0.0206,0.0204,0.0211,0.0212,0.0212,0.0213,0.0213,0,0.0364,0.0411,0.0456,0.0471,0.0512,0.0541,0.0565,0.0581,0.0609,0.061,0.0624,0.0576,0.0563,0.048,0.0378,0.0374,0.028,0.0259,0.0179,0.0177,0.0196,0.0196,0.0197,0.0197,0.0198,0.0198,0.0198,0,0.0391,0.0429,0.0476,0.0503,0.0567,0.0581,0.0644,0.0657,0.0683,0.0722,0.0674,0.0682,0.0572,0.0504,0.0399,0.028,0.0292,0.0186,0.0161,0.0213,0.0216,0.0193,0.0194,0.0195,0.0196,0.0196,0.0197,0,0.0409,0.0437,0.0496,0.0555,0.0582,0.0629,0.0705,0.0745,0.0761,0.0809,0.0815,0.0765,0.0676,0.0553,0.0416,0.0318,0.02,0.0153,0.022,0.0199,0.0106,0.0109,0.006,0.0059,0.0058,0.0057,0.0056,0,0.042,0.0453,0.0537,0.0581,0.0616,0.0689,0.0741,0.0783,0.0827,0.0859,0.0881,0.0818,0.0766,0.0558,0.0417,0.0216,0.0181,0.0112,0.0104,0.0112,0.0093,0.0097,0.0102,0.0055,0.0054,0.0054,0.0054,0,0.0442,0.0475,0.0525,0.0616,0.0686,0.0765,0.0843,0.0879,0.0929,0.0945,0.0937,0.0836,0.0732,0.0562,0.0406,0.0259,0.0153,0.0101,0.0102,0.0094,0.0105,0.0088,0.0093,0.005,0.0051,0.0051,0.0051,0,0.046,0.0497,0.0566,0.0647,0.0734,0.0817,0.0858,0.0912,0.0955,0.0984,0.0978,0.0867,0.0807,0.0585,0.0441,0.0295,0.025,0.0188,0.0183,0.0185,0.0234,0.0266,0.0244,0,0,0,0,0,0.0473,0.0517,0.059,0.0681,0.0767,0.0824,0.0916,0.0948,0.0996,0.0997,0.0991,0.0894,0.0688,0.0598,0.0449,0.0407,0.0215,0.0223,0.0139,0.0031,0.0035,0.0068,0,0,0,0,0,0,0.0482,0.0549,0.0586,0.0694,0.0759,0.0861,0.0923,0.0959,0.0957,0.0979,0.0872,0.0836,0.0635,0.0774,0.044,0.0397,0.0317,0.0134,0.013,0.0029,0.0032,0.0036,0.0071,0,0,0,0,0]}]]